Home > Weather > Bautzen > Past weeks

Flag for Germany Weather for the Past 2 Weeks in Bautzen, Saxony, Germany

Now
43 °F

Clear.


Feels Like: 43 °F
Forecast: 42 / 63 °F
Wind: No wind

Location: Dresden-Klotzsche

Current Time: May 2, 2016 at 6:46:20 AM

Latest Report: May 2, 2016 at 5:50 AM


Visibility: 10 mi

Pressure: 30.24 "Hg

Humidity: 81%

Dew Point: 37 °F

Location of BautzenLocation

Historic Weather in Bautzen — Graph

°F

Bautzen Temperature Yesterday

Maximum temperature yesterday: 61 °F (at 2:20 PM)
Minimum temperature yesterday: 43 °F (at 5:50 AM)
Average temperature yesterday: 52 °F

High & Low Weather Summary for the Past Weeks

 TemperatureHumidityPressure
High64 °F (Apr 30, 3:20 PM)100% (Apr 17, 5:20 AM)30.39 "Hg (Apr 17, 5:20 AM)
Low32 °F (Apr 24, 6:20 AM)25% (Apr 30, 2:20 PM)29.47 "Hg (Apr 26, 7:50 AM)
Average45 °F66%29.97 "Hg
* Reported Apr 17 5:20 AM — May 2 5:20 AM, Bautzen, Weather by CustomWeather, © 2016

Note: Actual official high and low records may vary slightly from our data, if they occured in-between our weather recording intervals... More about our weather records

Advertising

Bautzen Weather History for the Previous 24 Hours

Scroll right to see more
 ConditionsComfort  
Time TempWeatherWind HumidityBarometerVisibility
5:20 AM
Mon, May 2
43 °FClear.1 mph81%30.24 "Hg10 mi
4:50 AM45 °FClear.1 mph76%30.24 "Hg10 mi
4:20 AM45 °FClear.No wind81%30.24 "Hg10 mi
3:50 AM46 °FClear.No wind71%30.24 "Hg10 mi
3:20 AM45 °FClear.1 mph76%30.24 "Hg10 mi
2:50 AM48 °FClear.1 mph66%30.24 "Hg10 mi
2:20 AM46 °FClear.1 mph71%30.24 "Hg10 mi
1:50 AM46 °FClear.2 mph71%30.24 "Hg10 mi
1:20 AM48 °FClear.1 mph66%30.24 "Hg10 mi
12:50 AM48 °FClear.1 mph66%30.24 "Hg10 mi
12:20 AM48 °FClear.2 mph71%30.24 "Hg10 mi
11:50 PM
Sun, May 1
48 °FClear.3 mph71%30.21 "Hg10 mi
11:20 PM48 °FClear.2 mph66%30.21 "Hg10 mi
10:50 PM52 °FClear.2 mph58%30.21 "Hg10 mi
10:20 PM50 °FClear.3 mph62%30.21 "Hg10 mi
9:50 PM52 °FClear.2 mph58%30.21 "Hg10 mi
9:20 PM54 °FSunny.3 mph54%30.21 "Hg10 mi
8:50 PM54 °FSunny.5 mph54%30.21 "Hg10 mi
8:20 PM54 °FSunny.6 mph54%30.21 "Hg10 mi
7:50 PM55 °FSunny.9 mph51%30.21 "Hg10 mi
7:20 PM55 °FSunny.10 mph51%30.21 "Hg10 mi
6:50 PM57 °FSunny.14 mph48%30.18 "Hg10 mi
6:20 PM57 °FSunny.13 mph48%30.18 "Hg10 mi
5:50 PM59 °FSunny.15 mph45%30.18 "Hg10 mi
5:20 PM59 °FSunny.16 mph42%30.18 "Hg10 mi
4:50 PM59 °FPassing clouds.15 mph42%30.15 "HgN/A
4:20 PM59 °FSunny.13 mph42%30.15 "Hg10 mi
3:50 PM59 °FOvercast.13 mph42%30.15 "HgN/A
3:20 PM59 °FMore clouds than sun.14 mph48%30.15 "HgN/A
2:50 PM61 °FBroken clouds.15 mph45%30.15 "HgN/A
2:20 PM61 °FBroken clouds.14 mph45%30.15 "HgN/A
1:50 PM59 °FBroken clouds.15 mph51%30.15 "HgN/A
1:20 PM59 °FBroken clouds.15 mph51%30.15 "HgN/A
12:50 PM59 °FPartly sunny.13 mph55%30.15 "HgN/A
12:20 PM57 °FPartly sunny.14 mph59%30.15 "HgN/A
11:50 AM57 °FPassing clouds.14 mph59%30.15 "HgN/A
11:20 AM55 °FSunny.15 mph63%30.12 "Hg10 mi
10:50 AM55 °FSunny.14 mph63%30.12 "Hg10 mi
10:20 AM54 °FPassing clouds.10 mph63%30.12 "HgN/A
9:50 AM54 °FPassing clouds.10 mph58%30.09 "HgN/A
8:50 AM48 °FClear.6 mph71%30.09 "Hg5 mi
8:20 AM46 °FClear.5 mph71%30.09 "Hg5 mi
7:50 AM45 °FClear.2 mph76%30.09 "Hg4 mi
7:20 AM45 °FClear.1 mph76%30.09 "Hg4 mi
6:20 AM43 °FClear.1 mph71%30.07 "Hg10 mi
Weather by CustomWeather, © 2016

See weather overviewHow to use our weather pages